| time (UTC) | temp F | wind direction | speed knots | gust knots | rain 1hr in | rain 24hr in | rain mn in | humidity % | barometer mb |
| 20260504002403 | 55 | 300 | 0.0 | 1.7 | 0.00 | 0.00 | 0.00 | 37 | 1014.9 |
| 20260504001903 | 55 | 302 | 0.9 | 1.7 | 0.00 | 0.00 | 0.00 | 37 | 1014.8 |
| 20260504001403 | 55 | 309 | 0.9 | 1.7 | 0.00 | 0.00 | 0.00 | 38 | 1014.8 |
| 20260504000903 | 55 | 300 | 0.9 | 1.7 | 0.00 | 0.00 | 0.00 | 37 | 1014.9 |
| 20260504000403 | 55 | 283 | 0.0 | 1.7 | 0.00 | 0.00 | 0.00 | 37 | 1014.9 |
| 20260503235902 | 56 | 282 | 0.0 | 1.7 | 0.00 | 0.00 | 0.00 | 38 | 1014.8 |
| 20260503235402 | 56 | 271 | 0.0 | 3.5 | 0.00 | 0.00 | 0.00 | 36 | 1014.8 |
| 20260503234903 | 57 | 279 | 0.9 | 3.5 | 0.00 | 0.00 | 0.00 | 36 | 1014.8 |
| 20260503233900 | 58 | 269 | 0.9 | 3.5 | 0.00 | 0.00 | 0.00 | 34 | 1014.7 |
| 20260503233402 | 58 | 282 | 0.9 | 4.3 | 0.00 | 0.00 | 0.00 | 34 | 1014.7 |
| 20260503232856 | 59 | 275 | 1.7 | 4.3 | 0.00 | 0.00 | 0.00 | 36 | 1014.6 |
| 20260503231351 | 60 | 305 | 0.9 | 9.6 | 0.00 | 0.00 | 0.00 | 33 | 1014.4 |
| 20260503230844 | 60 | 0 | 4.3 | 9.6 | 0.00 | 0.00 | 0.00 | 30 | 1014.5 |
| 20260503225841 | 60 | 0 | 2.6 | 5.2 | 0.00 | 0.00 | 0.00 | 30 | 1014.5 |
| 20260503225342 | 61 | 343 | 1.7 | 4.3 | 0.00 | 0.00 | 0.00 | 32 | 1014.5 |
| 20260503224839 | 61 | 293 | 2.6 | 7.8 | 0.00 | 0.00 | 0.00 | 30 | 1014.5 |
| 20260503224338 | 61 | 351 | 2.6 | 7.8 | 0.00 | 0.00 | 0.00 | 30 | 1014.5 |
| 20260503223840 | 61 | 292 | 1.7 | 4.3 | 0.00 | 0.00 | 0.00 | 31 | 1014.4 |
| 20260503223338 | 61 | 221 | 1.7 | 8.7 | 0.00 | 0.00 | 0.00 | 30 | 1014.3 |
| 20260503222838 | 61 | 255 | 3.5 | 8.7 | 0.00 | 0.00 | 0.00 | 29 | 1014.3 |
| 20260503222338 | 61 | 261 | 1.7 | 5.2 | 0.00 | 0.00 | 0.00 | 29 | 1014.4 |
| 20260503221836 | 61 | 289 | 1.7 | 6.1 | 0.00 | 0.00 | 0.00 | 31 | 1014.6 |
| 20260503221332 | 62 | 292 | 3.5 | 6.1 | 0.00 | 0.00 | 0.00 | 29 | 1014.5 |
| 20260503220832 | 62 | 316 | 3.5 | 8.7 | 0.00 | 0.00 | 0.00 | 30 | 1014.5 |
| 20260503220331 | 62 | 283 | 4.3 | 8.7 | 0.00 | 0.00 | 0.00 | 31 | 1014.6 |
| 20260503215331 | 62 | 259 | 0.9 | 9.6 | 0.00 | 0.00 | 0.00 | 31 | 1014.6 |
| 20260503214320 | 62 | 272 | 5.2 | 10.4 | 0.00 | 0.00 | 0.00 | 29 | 1014.7 |
| 20260503213819 | 62 | 4 | 5.2 | 10.4 | 0.00 | 0.00 | 0.00 | 28 | 1014.5 |
| 20260503213318 | 62 | 344 | 4.3 | 10.4 | 0.00 | 0.00 | 0.00 | 30 | 1014.6 |
| 20260503212320 | 63 | 296 | 6.1 | 11.3 | 0.00 | 0.00 | 0.00 | 30 | 1014.6 |
| 20260503211819 | 63 | 320 | 3.5 | 7.8 | 0.00 | 0.00 | 0.00 | 31 | 1014.6 |
| 20260503211319 | 63 | 279 | 2.6 | 8.7 | 0.00 | 0.00 | 0.00 | 31 | 1014.6 |
| 20260503210818 | 63 | 309 | 3.5 | 8.7 | 0.00 | 0.00 | 0.00 | 29 | 1014.6 |
| 20260503210319 | 62 | 278 | 2.6 | 9.6 | 0.00 | 0.00 | 0.00 | 29 | 1014.6 |
| 20260503205819 | 62 | 0 | 5.2 | 9.6 | 0.00 | 0.00 | 0.00 | 28 | 1014.8 |
| 20260503205318 | 63 | 0 | 4.3 | 9.6 | 0.00 | 0.00 | 0.00 | 31 | 1014.8 |
| 20260503204820 | 63 | 279 | 4.3 | 13.0 | 0.00 | 0.00 | 0.00 | 31 | 1014.7 |
| 20260503204318 | 62 | 264 | 5.2 | 13.0 | 0.00 | 0.00 | 0.00 | 28 | 1014.7 |
| 20260503203819 | 62 | 0 | 3.5 | 9.6 | 0.00 | 0.00 | 0.00 | 30 | 1014.7 |
| 20260503202818 | 63 | 269 | 3.5 | 8.7 | 0.00 | 0.00 | 0.00 | 30 | 1014.8 |
| 20260503201818 | 62 | 0 | 5.2 | 12.2 | 0.00 | 0.00 | 0.00 | 30 | 1014.9 |
| 20260503201319 | 62 | 240 | 3.5 | 10.4 | 0.00 | 0.00 | 0.00 | 28 | 1015.1 |
| 20260503200818 | 63 | 286 | 3.5 | 7.8 | 0.00 | 0.00 | 0.00 | 29 | 1015.1 |
| 20260503200320 | 62 | 305 | 1.7 | 9.6 | 0.00 | 0.00 | 0.00 | 29 | 1015.0 |
| 20260503195819 | 61 | 0 | 1.7 | 10.4 | 0.00 | 0.00 | 0.00 | 34 | 1015.0 |
| 20260503195318 | 63 | 0 | 6.1 | 10.4 | 0.00 | 0.00 | 0.00 | 34 | 1015.1 |
| 20260503194819 | 62 | 0 | 5.2 | 8.7 | 0.00 | 0.00 | 0.00 | 33 | 1015.2 |
| 20260503193820 | 62 | 306 | 3.5 | 12.2 | 0.00 | 0.00 | 0.00 | 30 | 1015.4 |
| 20260503193319 | 63 | 0 | 5.2 | 12.2 | 0.00 | 0.00 | 0.00 | 28 | 1015.6 |
| 20260503192818 | 62 | 292 | 5.2 | 7.8 | 0.00 | 0.00 | 0.00 | 28 | 1015.6 |
| 20260503192318 | 60 | 257 | 1.7 | 11.3 | 0.00 | 0.00 | 0.00 | 28 | 1015.6 |
| 20260503191819 | 62 | 0 | 4.3 | 11.3 | 0.00 | 0.00 | 0.00 | 30 | 1015.8 |
| 20260503191318 | 62 | 258 | 5.2 | 10.4 | 0.00 | 0.00 | 0.00 | 32 | 1015.9 |
| 20260503190819 | 62 | 0 | 4.3 | 10.4 | 0.00 | 0.00 | 0.00 | 29 | 1015.8 |
| 20260503190320 | 61 | 0 | 2.6 | 9.6 | 0.00 | 0.00 | 0.00 | 29 | 1015.8 |
| 20260503185818 | 61 | 25 | 3.5 | 12.2 | 0.00 | 0.00 | 0.00 | 30 | 1016.0 |
| 20260503185320 | 62 | 0 | 4.3 | 12.2 | 0.00 | 0.00 | 0.00 | 30 | 1016.3 |
| 20260503184820 | 62 | 0 | 5.2 | 10.4 | 0.00 | 0.00 | 0.00 | 31 | 1016.2 |
| 20260503184318 | 62 | 327 | 4.3 | 10.4 | 0.00 | 0.00 | 0.00 | 30 | 1016.2 |
| 20260503183818 | 61 | 0 | 4.3 | 9.6 | 0.00 | 0.00 | 0.00 | 32 | 1016.1 |
| 20260503183318 | 61 | 0 | 5.2 | 12.2 | 0.00 | 0.00 | 0.00 | 33 | 1016.4 |
| 20260503182820 | 61 | 347 | 6.1 | 12.2 | 0.00 | 0.00 | 0.00 | 34 | 1016.3 |
| 20260503182319 | 60 | 283 | 5.2 | 9.6 | 0.00 | 0.00 | 0.00 | 34 | 1016.3 |
| 20260503181820 | 60 | 245 | 2.6 | 6.1 | 0.00 | 0.00 | 0.00 | 33 | 1016.3 |
| 20260503180820 | 59 | 285 | 5.2 | 9.6 | 0.00 | 0.00 | 0.00 | 33 | 1016.4 |
| 20260503180319 | 60 | 275 | 4.3 | 9.6 | 0.00 | 0.00 | 0.00 | 34 | 1016.4 |
| 20260503175818 | 59 | 292 | 1.7 | 9.6 | 0.00 | 0.00 | 0.00 | 39 | 1016.4 |
| 20260503175318 | 60 | 329 | 5.2 | 10.4 | 0.00 | 0.00 | 0.00 | 33 | 1016.6 |
| 20260503174819 | 59 | 358 | 3.5 | 10.4 | 0.00 | 0.00 | 0.00 | 31 | 1016.6 |
| 20260503174319 | 60 | 296 | 5.2 | 8.7 | 0.00 | 0.00 | 0.00 | 33 | 1016.6 |
| 20260503173319 | 57 | 292 | 1.7 | 9.6 | 0.00 | 0.00 | 0.00 | 34 | 1016.6 |
| 20260503172816 | 60 | 276 | 3.5 | 8.7 | 0.00 | 0.00 | 0.00 | 33 | 1016.8 |
| 20260503172310 | 58 | 0 | 3.5 | 11.3 | 0.00 | 0.00 | 0.00 | 36 | 1017.0 |
| 20260503171804 | 60 | 261 | 4.3 | 11.3 | 0.00 | 0.00 | 0.00 | 36 | 1017.0 |
| 20260503171302 | 58 | 231 | 3.5 | 10.4 | 0.00 | 0.00 | 0.00 | 34 | 1017.0 |
| 20260503150726 | 55 | 309 | 4.3 | 10.4 | 0.00 | 0.00 | 0.00 | 40 | 1018.2 |
| 20260503150223 | 54 | 290 | 4.3 | 11.3 | 0.00 | 0.00 | 0.00 | 41 | 1018.0 |
| 20260503140217 | 51 | 338 | 5.2 | 12.2 | 0.00 | 0.00 | 0.00 | 44 | 1018.3 |
| 20260503130716 | 48 | 0 | 5.2 | 14.8 | 0.00 | 0.00 | 0.00 | 48 | 1018.2 |
| 20260503130214 | 48 | 0 | 6.1 | 14.8 | 0.00 | 0.00 | 0.00 | 48 | 1018.2 |
| 20260503110656 | 41 | 0 | 0.0 | 3.5 | 0.00 | 0.00 | 0.00 | 61 | 1017.4 |
| 20260503100133 | 39 | 313 | 0.9 | 1.7 | 0.00 | 0.00 | 0.00 | 69 | 1016.4 |
| 20260503090118 | 40 | 305 | 0.9 | 3.5 | 0.00 | 0.00 | 0.00 | 66 | 1016.1 |
| 20260503081617 | 42 | 306 | 2.6 | 4.3 | 0.00 | 0.00 | 0.00 | 64 | 1016.1 |
| 20260503081118 | 42 | 298 | 1.7 | 3.5 | 0.00 | 0.00 | 0.00 | 66 | 1016.1 |
| 20260503080618 | 41 | 295 | 1.7 | 2.6 | 0.00 | 0.00 | 0.00 | 66 | 1016.1 |
| 20260503080117 | 41 | 298 | 0.9 | 1.7 | 0.00 | 0.00 | 0.00 | 66 | 1016.1 |
| 20260503072617 | 42 | 306 | 1.7 | 4.3 | 0.00 | 0.00 | 0.00 | 63 | 1015.8 |
| 20260503072118 | 42 | 310 | 1.7 | 4.3 | 0.00 | 0.00 | 0.00 | 64 | 1015.7 |
| 20260503071618 | 42 | 326 | 0.9 | 4.3 | 0.00 | 0.00 | 0.00 | 63 | 1015.7 |
| 20260503071117 | 42 | 302 | 1.7 | 4.3 | 0.00 | 0.00 | 0.00 | 63 | 1015.6 |
| 20260503070617 | 42 | 303 | 0.9 | 3.5 | 0.00 | 0.00 | 0.00 | 63 | 1015.6 |
| 20260503070117 | 42 | 326 | 1.7 | 3.5 | 0.00 | 0.00 | 0.00 | 63 | 1015.6 |
| 20260503060117 | 42 | 310 | 1.7 | 2.6 | 0.00 | 0.00 | 0.00 | 65 | 1015.3 |
| 20260503055117 | 42 | 300 | 0.9 | 1.7 | 0.00 | 0.00 | 0.00 | 65 | 1015.3 |
| 20260503054617 | 43 | 305 | 0.0 | 1.7 | 0.00 | 0.00 | 0.00 | 63 | 1015.3 |
| 20260503054117 | 43 | 305 | 0.9 | 1.7 | 0.00 | 0.00 | 0.00 | 63 | 1015.3 |
| 20260503053117 | 44 | 310 | 0.9 | 4.3 | 0.00 | 0.00 | 0.00 | 61 | 1015.4 |
| 20260503052618 | 44 | 295 | 1.7 | 6.1 | 0.00 | 0.00 | 0.00 | 61 | 1015.4 |
| 20260503052117 | 44 | 306 | 1.7 | 6.1 | 0.00 | 0.00 | 0.00 | 60 | 1015.5 |
| 20260503051618 | 44 | 0 | 2.6 | 5.2 | 0.00 | 0.00 | 0.00 | 61 | 1015.5 |
| 20260503051118 | 44 | 306 | 2.6 | 4.3 | 0.00 | 0.00 | 0.00 | 60 | 1015.6 |
| 20260503050617 | 44 | 306 | 2.6 | 5.2 | 0.00 | 0.00 | 0.00 | 60 | 1015.6 |
| 20260503050116 | 44 | 285 | 1.7 | 5.2 | 0.00 | 0.00 | 0.00 | 60 | 1015.5 |
| 20260503045615 | 44 | 309 | 1.7 | 7.8 | 0.00 | 0.00 | 0.00 | 60 | 1015.6 |
| 20260503045111 | 44 | 269 | 2.6 | 7.8 | 0.00 | 0.00 | 0.00 | 60 | 1015.5 |
| 20260503044612 | 44 | 319 | 3.5 | 9.6 | 0.00 | 0.00 | 0.00 | 59 | 1015.5 |
| 20260503044110 | 44 | 331 | 4.3 | 9.6 | 0.00 | 0.00 | 0.00 | 59 | 1015.6 |
| 20260503043114 | 44 | 320 | 6.1 | 11.3 | 0.00 | 0.00 | 0.00 | 59 | 1015.5 |
| 20260503042111 | 44 | 344 | 3.5 | 5.2 | 0.00 | 0.00 | 0.00 | 60 | 1015.4 |
| 20260503041610 | 44 | 324 | 2.6 | 7.8 | 0.00 | 0.00 | 0.00 | 60 | 1015.4 |
| 20260503041108 | 44 | 348 | 2.6 | 6.1 | 0.00 | 0.00 | 0.00 | 60 | 1015.5 |
| 20260503040605 | 44 | 319 | 2.6 | 5.2 | 0.00 | 0.00 | 0.00 | 60 | 1015.5 |
| 20260503040103 | 44 | 0 | 3.5 | 5.2 | 0.00 | 0.00 | 0.00 | 60 | 1015.5 |
| 20260503035604 | 44 | 329 | 2.6 | 4.3 | 0.00 | 0.00 | 0.00 | 60 | 1015.5 |
| 20260503035102 | 44 | 343 | 0.9 | 3.5 | 0.00 | 0.00 | 0.00 | 59 | 1015.5 |
| 20260503034604 | 44 | 350 | 0.9 | 7.8 | 0.00 | 0.00 | 0.00 | 59 | 1015.4 |
| 20260503034101 | 45 | 300 | 1.7 | 7.8 | 0.00 | 0.00 | 0.00 | 58 | 1015.5 |
| 20260503033601 | 45 | 347 | 1.7 | 8.7 | 0.00 | 0.00 | 0.00 | 58 | 1015.4 |
| 20260503033102 | 45 | 336 | 3.5 | 8.7 | 0.00 | 0.00 | 0.00 | 58 | 1015.4 |
| 20260503032602 | 45 | 0 | 2.6 | 6.1 | 0.00 | 0.00 | 0.00 | 57 | 1015.4 |
| 20260503032101 | 45 | 0 | 2.6 | 6.1 | 0.00 | 0.00 | 0.00 | 57 | 1015.4 |
| 20260503031602 | 45 | 0 | 0.9 | 1.7 | 0.00 | 0.00 | 0.00 | 57 | 1015.3 |
| 20260503031102 | 45 | 327 | 0.9 | 1.7 | 0.00 | 0.00 | 0.00 | 56 | 1015.3 |
| 20260503030602 | 45 | 1 | 0.0 | 2.6 | 0.00 | 0.00 | 0.00 | 57 | 1015.3 |
| 20260503025102 | 46 | 11 | 0.9 | 4.3 | 0.00 | 0.00 | 0.00 | 56 | 1015.4 |
| 20260503024559 | 46 | 24 | 1.7 | 3.5 | 0.00 | 0.00 | 0.00 | 55 | 1015.4 |
| 20260503024100 | 46 | 1 | 1.7 | 4.3 | 0.00 | 0.00 | 0.00 | 54 | 1015.4 |
| 20260503023555 | 46 | 0 | 3.5 | 6.1 | 0.00 | 0.00 | 0.00 | 54 | 1015.4 |
| 20260503023044 | 47 | 0 | 3.5 | 6.1 | 0.00 | 0.00 | 0.00 | 53 | 1015.4 |
| 20260503022545 | 47 | 344 | 2.6 | 6.1 | 0.00 | 0.00 | 0.00 | 54 | 1015.5 |
| 20260503021538 | 47 | 336 | 2.6 | 7.8 | 0.00 | 0.00 | 0.00 | 53 | 1015.4 |
| 20260503020549 | 48 | 1 | 2.6 | 7.8 | 0.00 | 0.00 | 0.00 | 52 | 1015.4 |
| 20260503020036 | 48 | 1 | 3.5 | 7.8 | 0.00 | 0.00 | 0.00 | 52 | 1015.3 |
| 20260503015530 | 48 | 337 | 3.5 | 7.8 | 0.00 | 0.00 | 0.00 | 51 | 1015.3 |
| 20260503015029 | 49 | 305 | 2.6 | 6.1 | 0.00 | 0.00 | 0.00 | 51 | 1015.4 |
| 20260503014529 | 49 | 355 | 1.7 | 4.3 | 0.00 | 0.00 | 0.00 | 51 | 1015.2 |
| 20260503014029 | 49 | 355 | 0.9 | 4.3 | 0.00 | 0.00 | 0.00 | 51 | 1015.2 |
| 20260503013524 | 49 | 331 | 1.7 | 3.5 | 0.00 | 0.00 | 0.00 | 51 | 1015.1 |
| 20260503012017 | 49 | 8 | 2.6 | 4.3 | 0.00 | 0.00 | 0.00 | 51 | 1014.9 |
| 20260503011517 | 49 | 358 | 0.0 | 4.3 | 0.00 | 0.00 | 0.00 | 50 | 1014.7 |
| 20260503011016 | 50 | 336 | 1.7 | 6.1 | 0.00 | 0.00 | 0.00 | 49 | 1014.6 |
| 20260503010517 | 50 | 47 | 2.6 | 6.1 | 0.00 | 0.00 | 0.00 | 49 | 1014.4 |
| 20260503010014 | 50 | 78 | 1.7 | 3.5 | 0.00 | 0.00 | 0.00 | 50 | 1014.4 |
| 20260503005515 | 50 | 0 | 2.6 | 4.3 | 0.00 | 0.00 | 0.00 | 49 | 1014.4 |
| 20260503004513 | 51 | 347 | 3.5 | 6.1 | 0.00 | 0.00 | 0.00 | 48 | 1014.3 |
| 20260503004011 | 51 | 7 | 2.6 | 6.1 | 0.00 | 0.00 | 0.00 | 48 | 1014.1 |
| 20260503003510 | 51 | 7 | 3.5 | 5.2 | 0.00 | 0.00 | 0.00 | 49 | 1013.9 |
| 20260503003010 | 51 | 20 | 3.5 | 5.2 | 0.00 | 0.00 | 0.00 | 48 | 1013.9 |